Location: Ernsee
(50.8780°N, 12.0389°E)
Time: 08:48:33
(UTC+00:00)

Cosmos 1076 Rocket - Visible Passes

Search period start: 06 June 2020 00:00
Search period end: 16 June 2020 00:00
Orbit: 590 x 612 km, 82.5° (Epoch: 05 June)

Date Brightness Start Highest point End Pass type
(mag) Time Alt. Az. Time Alt. Az. Time Alt. Az.
06 Jun 3.9 01:28:14 10° S 01:32:32 62° E 01:36:52 10° NNE visible
07 Jun 6.1 00:05:45 10° ESE 00:07:26 12° E 00:09:07 10° ENE visible
07 Jun 3.5 01:39:51 10° S 01:44:14 86° WNW 01:48:37 10° N visible
08 Jun 5.8 00:15:56 10° SE 00:18:53 18° E 00:21:51 10° NE visible
08 Jun 3.8 01:51:40 10° SSW 01:55:58 56° WNW 02:00:17 10° N visible
09 Jun 5.2 00:26:46 10° SE 00:30:24 27° E 00:34:04 10° NNE visible
09 Jun 4.4 02:03:42 10° SW 02:07:46 37° WNW 02:11:50 10° N visible
10 Jun 4.6 00:38:26 13° SSE 00:41:59 40° E 00:46:04 10° NNE visible
11 Jun 3.9 00:50:12 16° S 00:53:36 61° E 00:57:56 10° NNE visible
11 Jun 6.0 23:26:53 10° ESE 23:28:30 12° E 23:30:07 10° ENE visible
12 Jun 3.5 01:01:57 17° S 01:05:17 87° W 01:09:41 10° N visible
12 Jun 5.7 23:37:03 10° SE 23:39:58 18° E 23:42:54 10° NE visible
13 Jun 3.8 01:13:41 16° SSW 01:17:02 57° WNW 01:21:21 10° N visible
13 Jun 5.1 23:48:37 14° SE 23:51:29 26° E 23:55:07 10° NNE visible
14 Jun 4.4 01:25:24 14° SW 01:28:49 37° WNW 01:32:55 10° N visible
15 Jun 4.5 00:00:19 18° SSE 00:03:03 39° E 00:07:07 10° NNE visible
15 Jun 5.0 01:37:06 10° SW 01:40:40 26° WNW 01:44:21 10° NNW visible
